Mesa, AZ

1:31 AM MST on September 28, 2016 (GMT -0700)
Phoenix-Mesa Gateway Airport

Weather History for KIWA - December, 2012

Change the Weather History Date:

Friday, December 14, 2012

  Actual Average Record
Temperature  
Mean Temperature 54 °F -  
Max Temperature 57 °F 63 °F 82 °F (2010)
Min Temperature 50 °F 38 °F 33 °F (2001)
Degree Days  
Heating Degree Days 12    
Growing Degree Days 4 (Base 50)    
Moisture  
Dew Point 46 °F    
Average Humidity 77    
Maximum Humidity 88    
Minimum Humidity 51    
Precipitation  
Precipitation 0.16 in - - ()
Sea Level Pressure  
Sea Level Pressure 29.89 in    
Wind  
Wind Speed 11 mph (SSE)    
Max Wind Speed 21 mph    
Max Gust Speed 25 mph    
Visibility 12 miles    
Events Rain , Thunderstorm    
Averages and records for this station are not official NWS values.
T = Trace of Precipitation, MM = Missing Value Source: NWS Daily Summary

Daily Weather History Graph

Daily Weather History Graph

Search for Another Location

Airport or City:

Trip Planner

Search our weather history database for the weather conditions in past years. The results will help you decide how hot, cold, wet, or windy it might be!

Date:

Astronomy

Dec. 14, 2012 Rise Set
Actual Time 7:22 AM MST 5:20 PM MST
Civil Twilight 6:55 AM MST 5:48 PM MST
Nautical Twilight 6:24 AM MST 6:19 PM MST
Astronomical Twilight 5:53 AM MST 6:49 PM MST
Moon 8:33 AM MST (12/14) 7:14 PM MST (12/14)
Length of Visible Light 10h 52m
Length of Day
9h 57m
Waxing Crescent, 3% of the Moon is Illuminated
Dec 14
Waxing Crescent
Dec 19
First Quarter
Dec 28
Full
Jan 4
Last Quarter
Jan 11
New

Hourly Weather History & Observations

Time (MST) Temp. Dew Point Humidity Pressure Visibility Wind Dir Wind Speed Gust Speed Precip Events Conditions
12:15 AM 55.4 °F 51.8 °F 88% 29.71 in 10.0 mi ESE 9.2 mph - N/A Rain Light Rain
12:35 AM 55.4 °F 51.8 °F 88% 29.70 in 7.0 mi ESE 12.7 mph - 0.01 in Rain Rain
12:55 AM 55.4 °F 51.8 °F 88% 29.69 in 10.0 mi SE 8.1 mph - 0.01 in Thunderstorm Thunderstorm
1:15 AM 55.4 °F 51.8 °F 88% 29.68 in 10.0 mi SSE 10.4 mph - 0.01 in Rain Rain
1:35 AM 55.4 °F 51.8 °F 88% 29.69 in 7.0 mi SSE 12.7 mph 19.6 mph 0.10 in Rain Light Rain
1:55 AM 55.4 °F 50.0 °F 82% 29.69 in 10.0 mi South 15.0 mph - 0.11 in Rain Light Rain
2:15 AM 55.4 °F 48.2 °F 77% 29.69 in 10.0 mi South 11.5 mph - N/A Rain Light Rain
2:35 AM 55.4 °F 50.0 °F 82% 29.71 in 10.0 mi South 16.1 mph 23.0 mph N/A Rain Light Rain
2:55 AM 53.6 °F 46.4 °F 77% 29.71 in 10.0 mi South 16.1 mph 24.2 mph 0.01 in Rain Light Rain
3:15 AM 51.8 °F 46.4 °F 82% 29.71 in 10.0 mi South 13.8 mph 23.0 mph N/A Rain Light Rain
3:35 AM 51.8 °F 46.4 °F 82% 29.73 in 10.0 mi SSE 20.7 mph 25.3 mph N/A   Scattered Clouds
3:55 AM 51.8 °F 44.6 °F 76% 29.72 in 10.0 mi SSE 13.8 mph - N/A   Mostly Cloudy
4:15 AM 51.8 °F 46.4 °F 82% 29.73 in 10.0 mi SSE 17.3 mph - N/A   Mostly Cloudy
4:35 AM 51.8 °F 44.6 °F 76% 29.73 in 10.0 mi South 16.1 mph 21.9 mph N/A   Overcast
4:55 AM 51.8 °F 44.6 °F 76% 29.74 in 10.0 mi South 16.1 mph 21.9 mph N/A   Mostly Cloudy
5:15 AM 51.8 °F 44.6 °F 76% 29.75 in 10.0 mi South 15.0 mph 21.9 mph N/A   Overcast
5:47 AM 53.6 °F 46.4 °F 77% 29.97 in 20.0 mi SSW 15.0 mph - N/A   Mostly Cloudy
6:47 AM 53.6 °F 46.4 °F 77% 29.80 in 20.0 mi SSW 16.1 mph - N/A   Mostly Cloudy
7:47 AM 51.8 °F 44.6 °F 76% 29.84 in 20.0 mi SSW 6.9 mph - N/A   Mostly Cloudy
8:47 AM 51.8 °F 42.8 °F 71% 29.89 in 20.0 mi SW 11.5 mph - N/A   Mostly Cloudy
9:47 AM 53.6 °F 42.8 °F 67% 29.93 in 20.0 mi SW 8.1 mph - N/A   Mostly Cloudy
10:47 AM 53.6 °F 41.0 °F 62% - 20.0 mi SSW 10.4 mph - N/A   Overcast
11:47 AM 55.4 °F 42.8 °F 63% 29.95 in 35.0 mi SSW 10.4 mph - N/A   Mostly Cloudy
12:50 PM 55.4 °F 42.8 °F 63% 29.94 in 30.0 mi SW 6.9 mph - N/A   Mostly Cloudy
2:47 PM 57.2 °F 39.2 °F 51% 29.96 in 30.0 mi WSW 6.9 mph - N/A   Mostly Cloudy
3:47 PM 55.4 °F 42.8 °F 63% 29.97 in 30.0 mi ESE 5.8 mph - N/A   Mostly Cloudy
4:47 PM 53.6 °F 42.8 °F 67% 29.99 in 20.0 mi SE 8.1 mph - N/A   Mostly Cloudy
5:47 PM 53.6 °F 44.6 °F 72% 30.00 in 20.0 mi East 6.9 mph - N/A   Mostly Cloudy
6:47 PM 53.6 °F 46.4 °F 77% 30.01 in 20.0 mi East 8.1 mph - N/A   Scattered Clouds
7:47 PM 53.6 °F 46.4 °F 77% 30.03 in 7.0 mi Variable 3.5 mph - N/A Rain Rain
7:55 PM 50.0 °F 44.6 °F 82% 30.04 in 10.0 mi Calm Calm - 0.03 in Rain Rain
8:15 PM 51.8 °F 44.6 °F 76% 30.04 in 10.0 mi SE 4.6 mph - N/A   Mostly Cloudy
8:35 PM 51.8 °F 46.4 °F 82% 30.03 in 10.0 mi ESE 8.1 mph - N/A   Scattered Clouds
8:47 PM 53.6 °F 46.4 °F 77% 30.03 in 10.0 mi ESE 6.9 mph - N/A   Mostly Cloudy
8:55 PM 51.8 °F 46.4 °F 82% 30.03 in 10.0 mi SE 9.2 mph - N/A   Clear
9:15 PM 51.8 °F 46.4 °F 82% 30.04 in 10.0 mi SE 4.6 mph - N/A   Clear
9:35 PM 51.8 °F 46.4 °F 82% 30.03 in 10.0 mi SE 6.9 mph - N/A   Clear
9:55 PM 51.8 °F 46.4 °F 82% 30.03 in 10.0 mi SE 6.9 mph - N/A   Clear
10:15 PM 51.8 °F 46.4 °F 82% 30.03 in 10.0 mi ESE 6.9 mph - N/A   Clear
10:35 PM 51.8 °F 44.6 °F 76% 30.03 in 10.0 mi SE 6.9 mph - N/A Rain Light Rain
10:55 PM 50.0 °F 44.6 °F 82% 30.03 in 10.0 mi ESE 10.4 mph - N/A   Scattered Clouds
11:15 PM 50.0 °F 44.6 °F 82% 30.02 in 10.0 mi ESE 5.8 mph - N/A   Clear
11:35 PM 50.0 °F 44.6 °F 82% 30.02 in 10.0 mi SE 6.9 mph - N/A   Clear
11:55 PM 50.0 °F 44.6 °F 82% 30.02 in 10.0 mi SE 4.6 mph - N/A Rain Light Rain